Location: Berlise
(49.6641°N, 4.1077°E)
Time: 19:55:45
(UTC+00:00)

Cosmos 2298 Rocket - Pass Details

Date: 27 January 2021
Orbit: 775 x 784 km, 74.0° (Epoch: 27 February)

Event Time Altitude Azimuth Distance (km) Brightness Sun altitude
Exits shadow 05:00:28 36° 330° (NNW) 1,231 4.8 -22.9°
Maximum altitude 05:02:43 79° 249° (WSW) 806 3.9 -22.5°
Drops below altitude 10° 05:08:02 10° 164° (SSE) 2,336 6.7 -21.7°
Sets 05:10:24 0° 163° (SSE) 3,259 7.5 -21.3°
